This is the latest recevied weather packets stored in our database for station/object PE1BMM-13. If no packets are shown the sender has not sent any weather packets the latest 10 day(s).
| Time | Temp. | Humidity | Pressure | Rain* | Wind** | Luminosity | Snow |
|---|---|---|---|---|---|---|---|
| 1777549761 | 16.67° C | 33% | 1028.3 hPa | 0 mm | - | - | - |
| 1777549461 | 16.67° C | 36% | 1028.2 hPa | 0 mm | - | - | - |
| 1777549162 | 16.67° C | 36% | 1028.3 hPa | 0 mm | - | - | - |
| 1777548862 | 16.11° C | 38% | 1028.3 hPa | 0 mm | - | - | - |
| 1777548562 | 16.11° C | 36% | 1028.5 hPa | 0 mm | - | - | - |
| 1777548262 | 16.11° C | 40% | 1028.5 hPa | 0 mm | - | - | - |
| 1777547962 | 16.11° C | 39% | 1028.5 hPa | 0 mm | - | - | - |
| 1777547661 | 16.11° C | 39% | 1028.7 hPa | 0 mm | - | - | - |
| 1777547362 | 15.56° C | 39% | 1028.6 hPa | 0 mm | - | - | - |
| 1777547064 | 15.56° C | 39% | 1028.7 hPa | 0 mm | - | - | - |
| 1777546759 | 15.56° C | 41% | 1028.7 hPa | 0 mm | - | - | - |
| 1777546451 | 15.56° C | 40% | 1028.7 hPa | 0 mm | - | - | - |
| 1777546144 | 15.56° C | 40% | 1028.8 hPa | 0 mm | - | - | - |
| 1777545838 | 15.56° C | 38% | 1028.8 hPa | 0 mm | - | - | - |
| 1777545532 | 15.56° C | 38% | 1028.8 hPa | 0 mm | - | - | - |
| 1777545227 | 15.56° C | 43% | 1028.8 hPa | 0 mm | - | - | - |
| 1777544935 | 15° C | 41% | 1028.8 hPa | 0 mm | - | - | - |
| 1777544650 | 15° C | 40% | 1028.9 hPa | 0 mm | - | - | - |
| 1777544309 | 15° C | 40% | 1029 hPa | 0 mm | - | - | - |
| 1777544003 | 15° C | 39% | 1029.1 hPa | 0 mm | - | - | - |
| 1777543696 | 14.44° C | 43% | 1029 hPa | 0 mm | - | - | - |
| 1777543393 | 14.44° C | 41% | 1029.1 hPa | 0 mm | - | - | - |
| 1777543084 | 14.44° C | 39% | 1029.1 hPa | 0 mm | - | - | - |
| 1777542778 | 14.44° C | 39% | 1029.2 hPa | 0 mm | - | - | - |
| 1777542473 | 14.44° C | 42% | 1029.4 hPa | 0 mm | - | - | - |
* Rain latest hour (hover to see other rain measurements)
** Current wind speed in m/s (hover to see current wind gust speed)